Weather in Tatarsk

Russia / Smolensk Oblast     54°15′09″N   31°33′45″E
temp.,
°C
wind,
m/s
gust,
m/s
humid.,
%
clouds,
%
prec.,
mm/h
press.,
hPa
HPBL,
m
13 april, tue
tue1300:00+9e3590100 0.1 1022135
03:00+9s1193100 0.2 102110
06:00+8e229187 0.0 102111
09:00+12ese2381100 0.0 1021229
12:00+15se4669100 0.0 1020717
15:00+14s5975100 0.3 1019736
18:00+12sse4985100 0.0 1019338
21:00+10sse3892100 0.0 1019194
14 april, wed
wed1400:00+10sse2491100 0.0 1018114
03:00+10sse239161 0.1 101776
06:00+9sse2495100 0.5 1017112
09:00+11sse3586100 0.5 1017336
12:00+13sse457399 0.2 1016752
15:00+13sse357291 0.5 1016727
18:00+13sse247698 0.1 1015476
21:00+10se2389100 0.7 101645
15 april, thu
thu1500:00+10se119099 0.4 101513
03:00+9ese1190100 0.6 101510
06:00+9e2291100 0.1 101533
09:00+11e3584100 0.1 1015349
12:00+10e4593100 1.8 1015258
15:00+11ene4686100 1.9 1015505
18:00+12e3782100 0.2 1014503
21:00
16 april, fri
fri1600:00+9e51092100 0.0 1015375
03:00+8nne4895100 1.1 1015187
06:00+8ne61292100 0.1 1014430
09:00+8ne71291100 1.3 1014594
12:00+11ene61183100 0.3 1015662
15:00+14ene61073100 0.8 10151298
18:00+13e71274100 2.3 1015723
21:00+10ne6128998 1.4 1019547
17 april, sat
sat1700:00+10ene6138594 10.4 1019629
03:00+9ene6128998 0.6 1021518
06:00+7ne7128986 0.1 1022472
09:00+8ene7128083 0.1 1024622
12:00+12ene8106531 0.0 10241000
15:00+13ene810505 0.0 10251386
18:00+12ene711485 0.0 10261375
21:00+8ene513590 0.0 1028383